Flag for Denmark Weather past 2 weeks in Odense, Denmark

Now
61 °F

Sunny.


Feels Like: 61 °F
Forecast: 52 / 74 °F
Wind: 1 mph from Southwest

Location: Odense / Beldringe

Current Time: Aug 2, 2015 at 8:52:51 AM

Latest Report: Aug 2, 2015 at 8:20 AM


Visibility: 10 mi

Pressure: 30.09 "Hg

Humidity: 88%

Dew point: 57 °F

Location of OdenseLocation

Historic Weather in Odense — Graph

°F

Odense temperature yesterday

Maximum temperature yesterday: 66 °F (at 2:50 PM)
Minimum temperature yesterday: 57 °F (at 8:20 AM)
Average temperature yesterday: 62 °F

Past Weeks' High & Low Weather Summary

 TemperatureHumidityPressure
High73 °F (Jul 21, 12:50 PM)100% (Jul 18, 7:20 AM)30.09 "Hg (Jul 18, 7:20 AM)
Low52 °F (Aug 2, 6:50 AM)40% (Jul 24, 3:50 PM)29.36 "Hg (Jul 28, 7:20 AM)
Average64 °F80%29.74 "Hg
* Reported Jul 18 7:20 AM — Aug 2 7:50 AM, Odense, Weather by CustomWeather, © 2015

Note: Actual official high and low records may vary slightly from our data, if they occured in-between our weather recording intervals... More about our weather records

Advertising

Odense weather history for previous 24 hours

 ConditionsComfort  
Time TempWeatherWind HumidityBarometerVisibility
7:50 AM
Sun, Aug 2
57 °FSunny.No wind94%30.09 "Hg10 mi
7:20 AM54 °FSunny.1 mph100%30.07 "Hg10 mi
6:50 AM52 °FSunny.2 mph100%30.07 "Hg10 mi
4:50 PM
Sat, Aug 1
66 °FScattered clouds.5 mph46%30.04 "HgN/A
3:50 PM66 °FScattered clouds.7 mph46%30.07 "HgN/A
2:50 PM66 °FScattered clouds.2 mph49%30.07 "HgN/A
1:50 PM64 °FScattered clouds.7 mph52%30.07 "HgN/A
12:50 PM63 °FScattered clouds.5 mph56%30.07 "HgN/A
11:50 AM63 °FScattered clouds.3 mph56%30.09 "HgN/A
11:20 AM64 °FScattered clouds.7 mph56%30.07 "HgN/A
10:50 AM61 °FScattered clouds.7 mph72%30.07 "HgN/A
10:20 AM61 °FScattered clouds.6 mph72%30.07 "HgN/A
9:50 AM61 °FScattered clouds.10 mph77%30.07 "HgN/A
9:20 AM59 °FScattered clouds.8 mph82%30.07 "HgN/A
8:50 AM59 °FScattered clouds.8 mph82%30.07 "HgN/A
8:20 AM57 °FScattered clouds.7 mph94%30.07 "HgN/A
Weather by CustomWeather, © 2015

See weather overviewHow to use our weather pages